{"data":{"norad_id":56354,"intl_designator":"2023-058AP","name":"STARLINK-5877","alt_names":[],"object_type":"PAYLOAD","status":"ACTIVE","operator":null,"country":"US","launch_date":"2023-04-27","launch_site_code":"AFWTR","launch_vehicle":null,"mission":null,"orbit_class":"UNKNOWN","rcs_meters":null,"size_class":null,"mass_kg":null,"dimensions":null,"purposes":["comms"],"wikipedia_slug":null,"has_3d_model":false,"image_url":null,"decayed_at":null,"tle_current":{"epoch":"2026-05-24T23:47:30.173280Z","epoch_age_seconds":76618,"freshness":"FRESH","line1":"1 56354U 23058AP  26144.99132145 -.00020270  00000+0 -14012-2 0  9994","line2":"2 56354  97.4475 145.9993 0002593 113.9683 246.1815 15.05741674169677","mean_motion":15.05741674,"eccentricity":0.0002593,"inclination_deg":97.4475,"raan_deg":145.9993,"arg_perigee_deg":113.9683,"mean_anomaly_deg":246.1815,"bstar":-0.0014012,"rev_number":16967,"period_min":95.633934084765,"perigee_km":547.43370114521,"apogee_km":551.0262336545,"semimajor_km":6927.3669673999,"source":"CELESTRAK","updated_at":"2026-05-25T13:38:18.007964Z"}}}